Tracking 30970 objects as of 3-Jul-2025
HD Live streaming from Space Station
objects crossing your sky now

COSMOS 2251 DEB

Track COSMOS 2251 DEB now!
10-day predictions


NORAD ID: 34327
Int'l Code: 1993-036NZ
Perigee: 596.8 km
Apogee: 646.9 km
Inclination: 74.0 °
Period: 97.0 minutes
Semi major axis: 6992 km
RCS: 0.0428 m2 (small)
Launch date: June 16, 1993
Source: Commonwealth of Independent States (former USSR) (CIS)
Launch site: PLESETSK MISSILE AND SPACE COMPLEX (PKMTR)

Note: This is SATELLITE DEBRIS
Your satellite tracking list
Your tracking list is empty




NASA's NSSDC Master Catalog

Two Line Element Set (TLE):
1 34327U 93036NZ  25183.90382822  .00009063  00000-0  10623-2 0  9995
2 34327  73.9960 136.7547 0035777 348.4043  70.7621 14.84646048870882
Source of the keplerian elements: AFSPC